User: anonymous   Login
Location: Axtheid
(49.6213°N, 11.8205°E)
Time: 08:51:47
(UTC+00:00)
Language:

Cosmos 1538 Rocket - Orbit

View from above orbital plane
View from above orbital plane
View from above satellite
View from above satellite

Ground track
Ground track

The orbit data is extracted from the following two-line orbital elements,

1 14760U 84019B   21103.18434500  .00000106  00000-0  45428-4 0  9996
2 14760  74.0425  80.7908 0028699 315.6537  44.2317 14.35903323943941
Epoch (UTC): 13 April 2021 04:25:27
Eccentricity: 0.0028699
inclination: 74.0425°
perigee height: 751 km
apogee height: 792 km
right ascension of ascending node: 80.7908°
argument of perigee: 315.6537°
revolutions per day: 14.35903323
mean anomaly at epoch: 44.2317°
orbit number at epoch: 94394

The dashed part of the orbit path shows where the satellite is in the earth's shadow,  

DLR